Time,TemperatureF,DewpointF,PressureIn,WindDirection,WindDirectionDegrees,WindSpeedMPH,WindSpeedGustMPH,Humidity,HourlyPrecipIn,Conditions,Clouds,dailyrainin,SoftwareType,DateUTC
2013-06-11 00:02:00,72.0,70.0,29.93,East,86,0.0,1.0,95,0.00,,,0.00,,2013-06-11 05:02:00,
2013-06-11 00:22:00,71.0,69.0,29.93,NE,37,0.0,2.0,95,0.00,,,0.00,,2013-06-11 05:22:00,
2013-06-11 00:32:00,70.0,69.0,29.93,NE,37,0.0,1.0,96,0.00,,,0.00,,2013-06-11 05:32:00,
2013-06-11 00:52:00,70.0,69.0,29.94,NE,37,0.0,0.0,96,0.00,,,0.00,,2013-06-11 05:52:00,
2013-06-11 01:02:00,70.0,69.0,29.94,NE,37,0.0,0.0,96,0.00,,,0.00,,2013-06-11 06:02:00,
2013-06-11 01:22:00,69.0,68.0,29.94,NE,37,0.0,1.0,96,0.00,,,0.00,,2013-06-11 06:22:00,
2013-06-11 01:32:00,69.0,68.0,29.94,NE,37,0.0,0.0,97,0.00,,,0.00,,2013-06-11 06:32:00,
2013-06-11 01:42:00,68.0,67.0,29.93,NE,37,0.0,0.0,97,0.00,,,0.00,,2013-06-11 06:42:00,
2013-06-11 01:52:00,68.0,67.0,29.93,NE,37,0.0,0.0,97,0.00,,,0.00,,2013-06-11 06:52:00,
2013-06-11 02:02:00,68.0,67.0,29.93,NE,37,0.0,0.0,97,0.00,,,0.00,,2013-06-11 07:02:00,
2013-06-11 02:12:00,68.0,67.0,29.93,NE,37,0.0,1.0,97,0.00,,,0.00,,2013-06-11 07:12:00,
2013-06-11 02:22:00,68.0,67.0,29.93,NE,37,0.0,1.0,97,0.00,,,0.00,,2013-06-11 07:22:00,
2013-06-11 02:32:00,68.0,67.0,29.93,NE,37,0.0,1.0,97,0.00,,,0.00,,2013-06-11 07:32:00,
2013-06-11 02:42:00,67.0,66.0,29.93,NE,37,0.0,1.0,97,0.00,,,0.00,,2013-06-11 07:42:00,
2013-06-11 02:52:00,67.0,66.0,29.93,NE,37,0.0,1.0,97,0.00,,,0.00,,2013-06-11 07:52:00,
2013-06-11 03:02:00,67.0,66.0,29.93,NE,37,0.0,0.0,97,0.00,,,0.00,,2013-06-11 08:02:00,
2013-06-11 03:22:00,67.0,66.0,29.93,NE,37,0.0,1.0,97,0.00,,,0.00,,2013-06-11 08:22:00,
2013-06-11 03:32:00,67.0,66.0,29.93,NE,37,0.0,0.0,97,0.00,,,0.00,,2013-06-11 08:32:00,
2013-06-11 03:42:00,66.0,65.0,29.93,NE,37,0.0,1.0,98,0.00,,,0.00,,2013-06-11 08:42:00,
2013-06-11 03:52:00,66.0,65.0,29.93,NE,37,0.0,1.0,98,0.00,,,0.00,,2013-06-11 08:52:00,
2013-06-11 04:02:00,66.0,65.0,29.93,NE,37,0.0,1.0,98,0.00,,,0.00,,2013-06-11 09:02:00,
2013-06-11 04:22:00,66.0,65.0,29.93,NE,37,0.0,1.0,97,0.00,,,0.00,,2013-06-11 09:22:00,
2013-06-11 04:33:00,66.0,65.0,29.94,NE,37,0.0,1.0,97,0.00,,,0.00,,2013-06-11 09:33:00,
2013-06-11 04:43:00,66.0,65.0,29.94,NE,37,0.0,0.0,97,0.00,,,0.00,,2013-06-11 09:43:00,
2013-06-11 04:53:00,66.0,65.0,29.94,NE,37,0.0,0.0,97,0.00,,,0.00,,2013-06-11 09:53:00,
2013-06-11 05:03:00,66.0,65.0,29.95,NE,37,0.0,1.0,98,0.00,,,0.00,,2013-06-11 10:03:00,
2013-06-11 05:12:00,66.0,65.0,29.95,NE,37,0.0,1.0,98,0.00,,,0.00,,2013-06-11 10:12:00,
2013-06-11 05:22:00,66.0,65.0,29.95,NE,37,0.0,1.0,98,0.00,,,0.00,,2013-06-11 10:22:00,
2013-06-11 05:33:00,66.0,65.0,29.96,NE,37,0.0,1.0,98,0.00,,,0.00,,2013-06-11 10:33:00,
2013-06-11 05:42:00,66.0,65.0,29.96,NE,37,0.0,1.0,98,0.00,,,0.00,,2013-06-11 10:42:00,
2013-06-11 05:52:00,66.0,65.0,29.97,NE,37,0.0,0.0,97,0.00,,,0.00,,2013-06-11 10:52:00,
2013-06-11 06:02:00,66.0,65.0,29.97,NE,37,0.0,0.0,98,0.00,,,0.00,,2013-06-11 11:02:00,
2013-06-11 06:12:00,66.0,65.0,29.97,NE,37,0.0,0.0,98,0.00,,,0.00,,2013-06-11 11:12:00,
2013-06-11 06:22:00,66.0,65.0,29.98,NE,37,0.0,0.0,98,0.00,,,0.00,,2013-06-11 11:22:00,
2013-06-11 06:32:00,66.0,65.0,29.98,NE,37,0.0,0.0,98,0.00,,,0.00,,2013-06-11 11:32:00,
2013-06-11 06:42:00,66.0,65.0,29.98,NE,37,0.0,0.0,98,0.00,,,0.00,,2013-06-11 11:42:00,
2013-06-11 06:52:00,66.0,65.0,29.99,NE,37,0.0,1.0,98,0.00,,,0.00,,2013-06-11 11:52:00,
2013-06-11 07:02:00,66.0,65.0,29.99,NE,37,0.0,0.0,98,0.00,,,0.00,,2013-06-11 12:02:00,
2013-06-11 07:12:00,67.0,66.0,30.00,NE,37,0.0,0.0,98,0.00,,,0.00,,2013-06-11 12:12:00,
2013-06-11 07:22:00,67.0,66.0,30.00,NE,37,0.0,0.0,98,0.00,,,0.00,,2013-06-11 12:22:00,
2013-06-11 07:32:00,68.0,68.0,30.01,NE,37,0.0,0.0,99,0.00,,,0.00,,2013-06-11 12:32:00,
2013-06-11 07:42:00,69.0,69.0,30.01,NE,37,0.0,0.0,99,0.00,,,0.00,,2013-06-11 12:42:00,
2013-06-11 07:52:00,69.0,69.0,30.01,NE,37,0.0,0.0,99,0.00,,,0.00,,2013-06-11 12:52:00,
2013-06-11 08:02:00,72.0,72.0,30.01,South,174,1.0,2.0,99,0.00,,,0.00,,2013-06-11 13:02:00,
2013-06-11 08:12:00,72.0,72.0,30.01,South,174,1.0,2.0,99,0.00,,,0.00,,2013-06-11 13:12:00,
2013-06-11 08:22:00,75.0,74.0,30.01,South,184,1.0,3.0,97,0.00,,,0.00,,2013-06-11 13:22:00,
2013-06-11 08:32:00,77.0,75.0,30.01,SSE,168,0.0,5.0,93,0.00,,,0.00,,2013-06-11 13:32:00,
2013-06-11 08:52:00,79.0,75.0,30.02,South,189,2.0,7.0,89,0.00,,,0.00,,2013-06-11 13:52:00,
2013-06-11 09:02:00,80.0,76.0,30.02,WNW,289,1.0,5.0,88,0.00,,,0.00,,2013-06-11 14:02:00,
2013-06-11 09:22:00,81.0,76.0,30.02,SSW,198,2.0,8.0,84,0.00,,,0.00,,2013-06-11 14:22:00,
2013-06-11 09:32:00,82.0,76.0,30.02,SW,227,4.0,9.0,82,0.00,,,0.00,,2013-06-11 14:32:00,
2013-06-11 09:42:00,82.0,75.0,30.02,SW,214,4.0,10.0,80,0.00,,,0.00,,2013-06-11 14:42:00,
2013-06-11 09:53:00,82.0,75.0,30.02,SW,214,4.0,10.0,80,0.00,,,0.00,,2013-06-11 14:53:00,
2013-06-11 10:02:00,82.0,75.0,30.01,SSW,203,4.0,8.0,79,0.00,,,0.00,,2013-06-11 15:02:00,
2013-06-11 10:12:00,82.0,74.0,30.01,SW,227,3.0,8.0,77,0.00,,,0.00,,2013-06-11 15:12:00,
2013-06-11 10:22:00,82.0,74.0,30.01,SW,227,3.0,8.0,77,0.00,,,0.00,,2013-06-11 15:22:00,
2013-06-11 10:33:00,83.0,75.0,30.01,SW,229,4.0,8.0,76,0.00,,,0.00,,2013-06-11 15:33:00,
2013-06-11 10:42:00,83.0,75.0,30.01,SW,229,4.0,8.0,76,0.00,,,0.00,,2013-06-11 15:42:00,
2013-06-11 10:53:00,84.0,74.0,30.01,SW,225,2.0,8.0,73,0.00,,,0.00,,2013-06-11 15:53:00,
2013-06-11 11:02:00,84.0,74.0,30.02,SSW,205,3.0,7.0,72,0.00,,,0.00,,2013-06-11 16:02:00,
2013-06-11 11:12:00,84.0,74.0,30.02,SSW,205,3.0,7.0,72,0.00,,,0.00,,2013-06-11 16:12:00,
2013-06-11 11:22:00,86.0,77.0,30.02,South,174,1.0,10.0,74,0.00,,,0.00,,2013-06-11 16:22:00,
2013-06-11 11:32:00,86.0,75.0,30.02,SW,223,3.0,7.0,69,0.00,,,0.00,,2013-06-11 16:32:00,
2013-06-11 11:42:00,87.0,75.0,30.02,SSW,195,3.0,7.0,67,0.00,,,0.00,,2013-06-11 16:42:00,
2013-06-11 11:52:00,87.0,75.0,30.02,SSW,195,3.0,7.0,67,0.00,,,0.00,,2013-06-11 16:52:00,
2013-06-11 12:02:00,87.0,75.0,30.02,SW,229,2.0,8.0,67,0.00,,,0.00,,2013-06-11 17:02:00,
2013-06-11 12:12:00,87.0,75.0,30.02,SW,229,2.0,8.0,67,0.00,,,0.00,,2013-06-11 17:12:00,
2013-06-11 12:22:00,87.0,72.0,30.01,SSW,198,4.0,8.0,62,0.00,,,0.00,,2013-06-11 17:22:00,
2013-06-11 12:32:00,88.0,73.0,30.01,SW,236,4.0,9.0,62,0.00,,,0.00,,2013-06-11 17:32:00,
2013-06-11 12:43:00,88.0,72.0,30.01,SSW,201,4.0,11.0,60,0.00,,,0.00,,2013-06-11 17:43:00,
2013-06-11 12:52:00,88.0,72.0,30.01,SSW,201,4.0,11.0,60,0.00,,,0.00,,2013-06-11 17:52:00,
2013-06-11 13:02:00,89.0,72.0,30.00,SSW,210,5.0,9.0,58,0.00,,,0.00,,2013-06-11 18:02:00,
2013-06-11 13:12:00,89.0,72.0,30.00,SSW,210,5.0,9.0,58,0.00,,,0.00,,2013-06-11 18:12:00,
2013-06-11 13:22:00,89.0,74.0,30.00,SW,231,3.0,10.0,62,0.00,,,0.00,,2013-06-11 18:22:00,
2013-06-11 13:32:00,90.0,73.0,30.00,WSW,253,3.0,9.0,58,0.00,,,0.00,,2013-06-11 18:32:00,
2013-06-11 13:42:00,90.0,73.0,30.00,WSW,253,3.0,9.0,58,0.00,,,0.00,,2013-06-11 18:42:00,
2013-06-11 13:52:00,90.0,74.0,29.98,SSW,202,2.0,8.0,59,0.00,,,0.00,,2013-06-11 18:52:00,
2013-06-11 14:02:00,91.0,74.0,29.98,SW,218,1.0,7.0,58,0.00,,,0.00,,2013-06-11 19:02:00,
2013-06-11 14:22:00,91.0,73.0,29.98,SE,129,2.0,6.0,56,0.00,,,0.00,,2013-06-11 19:22:00,
2013-06-11 14:32:00,92.0,73.0,29.97,East,95,1.0,7.0,54,0.00,,,0.00,,2013-06-11 19:32:00,
2013-06-11 14:52:00,92.0,71.0,29.97,SW,214,3.0,6.0,51,0.00,,,0.00,,2013-06-11 19:52:00,
2013-06-11 15:02:00,92.0,70.0,29.96,SW,224,6.0,13.0,49,0.00,,,0.00,,2013-06-11 20:02:00,
2013-06-11 15:12:00,92.0,70.0,29.96,SW,224,6.0,13.0,49,0.00,,,0.00,,2013-06-11 20:12:00,
2013-06-11 15:22:00,93.0,70.0,29.96,SW,233,4.0,10.0,48,0.00,,,0.00,,2013-06-11 20:22:00,
2013-06-11 15:32:00,93.0,72.0,29.96,WSW,248,4.0,7.0,50,0.00,,,0.00,,2013-06-11 20:32:00,
2013-06-11 15:52:00,93.0,71.0,29.95,SW,231,5.0,10.0,49,0.00,,,0.00,,2013-06-11 20:52:00,
2013-06-11 16:02:00,93.0,70.0,29.95,SSW,195,5.0,11.0,48,0.00,,,0.00,,2013-06-11 21:02:00,
2013-06-11 16:22:00,93.0,71.0,29.95,South,172,4.0,12.0,49,0.00,,,0.00,,2013-06-11 21:22:00,
2013-06-11 16:33:00,93.0,71.0,29.95,SSW,196,6.0,10.0,49,0.00,,,0.00,,2013-06-11 21:33:00,
2013-06-11 16:53:00,92.0,73.0,29.95,SW,214,2.0,8.0,54,0.00,,,0.00,,2013-06-11 21:53:00,
2013-06-11 17:03:00,93.0,71.0,29.95,South,182,5.0,10.0,49,0.00,,,0.00,,2013-06-11 22:03:00,
2013-06-11 17:22:00,92.0,71.0,29.94,SW,224,4.0,11.0,50,0.00,,,0.00,,2013-06-11 22:22:00,
2013-06-11 17:32:00,92.0,70.0,29.94,SSW,199,4.0,11.0,49,0.00,,,0.00,,2013-06-11 22:32:00,
2013-06-11 17:52:00,93.0,72.0,29.93,South,170,3.0,10.0,50,0.00,,,0.00,,2013-06-11 22:52:00,
2013-06-11 18:02:00,93.0,72.0,29.93,SSW,200,2.0,10.0,51,0.00,,,0.00,,2013-06-11 23:02:00,
2013-06-11 18:22:00,93.0,72.0,29.93,WSW,256,2.0,5.0,50,0.00,,,0.00,,2013-06-11 23:22:00,
2013-06-11 18:32:00,93.0,72.0,29.93,SSW,206,3.0,7.0,51,0.00,,,0.00,,2013-06-11 23:32:00,
2013-06-11 18:42:00,93.0,73.0,29.92,SE,141,3.0,7.0,53,0.00,,,0.00,,2013-06-11 23:42:00,
2013-06-11 18:52:00,93.0,73.0,29.92,SE,141,3.0,7.0,53,0.00,,,0.00,,2013-06-11 23:52:00,
2013-06-11 19:02:00,92.0,72.0,29.92,SSW,199,2.0,7.0,52,0.00,,,0.00,,2013-06-12 00:02:00,
2013-06-11 19:12:00,92.0,73.0,29.92,SW,228,1.0,5.0,54,0.00,,,0.00,,2013-06-12 00:12:00,
2013-06-11 19:22:00,92.0,73.0,29.92,SW,228,1.0,5.0,54,0.00,,,0.00,,2013-06-12 00:22:00,
2013-06-11 19:32:00,91.0,73.0,29.92,SSW,208,1.0,7.0,55,0.00,,,0.00,,2013-06-12 00:32:00,
2013-06-11 19:52:00,90.0,75.0,29.92,WSW,243,0.0,3.0,62,0.00,,,0.00,,2013-06-12 00:52:00,
2013-06-11 20:02:00,89.0,77.0,29.92,WSW,243,0.0,0.0,68,0.00,,,0.00,,2013-06-12 01:02:00,
2013-06-11 20:22:00,86.0,77.0,29.92,WSW,243,0.0,0.0,75,0.00,,,0.00,,2013-06-12 01:22:00,
2013-06-11 20:32:00,84.0,77.0,29.93,WSW,243,0.0,0.0,80,0.00,,,0.00,,2013-06-12 01:32:00,
2013-06-11 20:52:00,82.0,77.0,29.93,WSW,243,0.0,1.0,84,0.00,,,0.00,,2013-06-12 01:52:00,
2013-06-11 21:02:00,80.0,76.0,29.93,WSW,243,0.0,0.0,87,0.00,,,0.00,,2013-06-12 02:02:00,
2013-06-11 21:22:00,79.0,75.0,29.94,WSW,243,0.0,0.0,89,0.00,,,0.00,,2013-06-12 02:22:00,
2013-06-11 21:32:00,79.0,74.0,29.94,South,171,0.0,3.0,85,0.00,,,0.00,,2013-06-12 02:32:00,
2013-06-11 21:42:00,81.0,75.0,29.95,SSE,168,0.0,2.0,82,0.00,,,0.00,,2013-06-12 02:42:00,
2013-06-11 21:52:00,81.0,75.0,29.95,SSE,168,0.0,2.0,82,0.00,,,0.00,,2013-06-12 02:52:00,
2013-06-11 22:02:00,81.0,76.0,29.96,SSW,207,0.0,1.0,84,0.00,,,0.00,,2013-06-12 03:02:00,
2013-06-11 22:12:00,79.0,75.0,29.96,SSW,207,0.0,0.0,87,0.00,,,0.00,,2013-06-12 03:12:00,
2013-06-11 22:22:00,79.0,75.0,29.96,SSW,207,0.0,0.0,87,0.00,,,0.00,,2013-06-12 03:22:00,
2013-06-11 22:32:00,78.0,74.0,29.96,SSW,207,0.0,1.0,89,0.00,,,0.00,,2013-06-12 03:32:00,
2013-06-11 22:53:00,78.0,74.0,29.96,SSW,204,0.0,1.0,87,0.00,,,0.00,,2013-06-12 03:53:00,
2013-06-11 23:03:00,77.0,74.0,29.97,SSW,204,0.0,0.0,91,0.00,,,0.00,,2013-06-12 04:03:00,
2013-06-11 23:23:00,76.0,74.0,29.96,SSW,204,0.0,0.0,93,0.00,,,0.00,,2013-06-12 04:23:00,
2013-06-11 23:33:00,76.0,73.0,29.96,SE,133,0.0,1.0,90,0.00,,,0.00,,2013-06-12 04:33:00,
2013-06-11 23:42:00,76.0,73.0,29.97,SE,146,0.0,1.0,89,0.00,,,0.00,,2013-06-12 04:42:00,
2013-06-11 23:52:00,76.0,73.0,29.97,SE,146,0.0,1.0,89,0.00,,,0.00,,2013-06-12 04:52:00,